When you browse on this site, cookies collect data to enhance your experience and personalize the content and advertising you see.
Visit our Privacy Policy to learn more. By continuing to use the site, you agree to this use of cookies and data.
  • In Denmark
  • List of Countries
  • For 7 days
  • Water Temperature
  • Satellite Maps
  • Weather Map
  • Weather Widgets
  • user-avatar
    Login

    Hourly Weather Albany

    Today, 18 June, Tuesday

    Time Temperature Precipitation Wind Pressure Humidity
    00:00 +12°C° 0 mm 1 mps 768 mmHg 74%
    01:00 +12°C° 0 mm 1 mps 767 mmHg 75%
    02:00 +10°C° 0 mm 2 mps 767 mmHg 77%
    03:00 +10°C° 0 mm 2 mps 766 mmHg 78%
    04:00 +9°C° 0 mm 3 mps 766 mmHg 79%
    05:00 +8°C° 0 mm 3 mps 766 mmHg 80%
    06:00 +8°C° 0 mm 3 mps 766 mmHg 80%
    07:00 +7°C° 0 mm 4 mps 766 mmHg 79%
    08:00 +7°C° 0 mm 5 mps 766 mmHg 77%
    09:00 +8°C° 0 mm 5 mps 766 mmHg 71%
    10:00 +10°C° 0 mm 5 mps 766 mmHg 65%
    11:00 +13°C° 0 mm 5 mps 766 mmHg 59%
    12:00 +14°C° 0 mm 5 mps 765 mmHg 58%
    13:00 +14°C° 0 mm 5 mps 765 mmHg 58%
    14:00 +15°C° 0 mm 5 mps 764 mmHg 58%
    15:00 +14°C° 0 mm 4 mps 764 mmHg 64%
    16:00 +13°C° 0 mm 4 mps 764 mmHg 70%
    17:00 +11°C° 0 mm 3 mps 764 mmHg 77%
    18:00 +11°C° 0 mm 3 mps 764 mmHg 79%
    19:00 +10°C° 0 mm 3 mps 764 mmHg 80%
    20:00 +9°C° 0 mm 3 mps 764 mmHg 82%
    21:00 +9°C° 0 mm 3 mps 764 mmHg 84%
    22:00 +7°C° 0 mm 4 mps 764 mmHg 87%
    23:00 +7°C° 0 mm 4 mps 764 mmHg 89%

    Tomorrow, 19 June, Wednesday

    Time Temperature Precipitation Wind Pressure Humidity
    00:00 +7°C° 0.1 mm 4 mps 764 mmHg 89%
    01:00 +8°C° 0.1 mm 3 mps 764 mmHg 89%
    02:00 +8°C° 0.1 mm 3 mps 764 mmHg 90%
    03:00 +8°C° 0 mm 3 mps 764 mmHg 90%
    04:00 +8°C° 0 mm 3 mps 764 mmHg 90%
    05:00 +7°C° 0 mm 3 mps 764 mmHg 91%
    06:00 +8°C° 0 mm 2 mps 764 mmHg 88%
    07:00 +8°C° 0 mm 2 mps 764 mmHg 85%
    08:00 +9°C° 0 mm 2 mps 764 mmHg 83%
    09:00 +10°C° 0 mm 2 mps 765 mmHg 77%
    10:00 +12°C° 0 mm 2 mps 765 mmHg 72%
    11:00 +14°C° 0 mm 2 mps 765 mmHg 67%
    12:00 +15°C° 0 mm 2 mps 764 mmHg 63%
    13:00 +16°C° 0 mm 1 mps 764 mmHg 59%
    14:00 +18°C° 0 mm 1 mps 763 mmHg 55%
    15:00 +15°C° 0 mm 1 mps 763 mmHg 61%
    16:00 +14°C° 0 mm 1 mps 763 mmHg 67%
    17:00 +12°C° 0 mm 1 mps 763 mmHg 73%
    18:00 +12°C° 0 mm 2 mps 764 mmHg 75%
    19:00 +10°C° 0 mm 2 mps 764 mmHg 78%
    20:00 +9°C° 0 mm 2 mps 764 mmHg 80%
    21:00 +9°C° 0 mm 2 mps 764 mmHg 78%
    22:00 +8°C° 0 mm 2 mps 764 mmHg 76%
    23:00 +8°C° 0 mm 2 mps 764 mmHg 74%

    Day after tomorrow, 20 June, Thursday

    Time Temperature Precipitation Wind Pressure Humidity
    00:00 +8°C° 0 mm 2 mps 764 mmHg 73%
    01:00 +8°C° 0 mm 2 mps 764 mmHg 72%
    02:00 +7°C° 0 mm 2 mps 764 mmHg 71%
    03:00 +8°C° 0 mm 2 mps 764 mmHg 70%
    04:00 +8°C° 0 mm 3 mps 764 mmHg 69%
    05:00 +8°C° 0 mm 3 mps 763 mmHg 67%
    06:00 +8°C° 0 mm 3 mps 763 mmHg 68%
    07:00 +8°C° 0 mm 3 mps 763 mmHg 68%
    08:00 +8°C° 0 mm 3 mps 763 mmHg 68%
    09:00 +10°C° 0 mm 3 mps 763 mmHg 63%
    10:00 +11°C° 0 mm 3 mps 763 mmHg 58%
    11:00 +13°C° 0 mm 3 mps 764 mmHg 52%
    12:00 +14°C° 0 mm 4 mps 763 mmHg 49%
    13:00 +15°C° 0 mm 4 mps 762 mmHg 47%
    14:00 +15°C° 0 mm 4 mps 762 mmHg 44%
    15:00 +14°C° 0 mm 4 mps 762 mmHg 47%
    16:00 +14°C° 0 mm 5 mps 762 mmHg 50%
    17:00 +13°C° 0 mm 5 mps 762 mmHg 53%
    18:00 +12°C° 0 mm 5 mps 762 mmHg 54%
    19:00 +12°C° 0 mm 5 mps 762 mmHg 55%
    20:00 +10°C° 0 mm 5 mps 761 mmHg 56%
    21:00 +11°C° 0 mm 6 mps 761 mmHg 55%
    22:00 +11°C° 0 mm 6 mps 761 mmHg 54%
    23:00 +11°C° 0 mm 6 mps 761 mmHg 52%

    21 June, Friday

    Time Temperature Precipitation Wind Pressure Humidity
    00:00 +11°C° 0 mm 6 mps 760 mmHg 50%
    01:00 +11°C° 0 mm 6 mps 760 mmHg 49%
    02:00 +10°C° 0 mm 5 mps 759 mmHg 47%
    03:00 +10°C° 0 mm 6 mps 759 mmHg 47%
    04:00 +10°C° 0 mm 6 mps 759 mmHg 47%
    05:00 +10°C° 0 mm 6 mps 758 mmHg 47%
    06:00 +10°C° 0 mm 6 mps 758 mmHg 50%
    07:00 +9°C° 0 mm 6 mps 758 mmHg 54%
    08:00 +9°C° 0 mm 6 mps 758 mmHg 57%
    09:00 +12°C° 0 mm 5 mps 758 mmHg 56%
    10:00 +13°C° 0 mm 5 mps 757 mmHg 55%
    11:00 +15°C° 0 mm 5 mps 757 mmHg 53%
    12:00 +17°C° 0 mm 4 mps 756 mmHg 53%
    13:00 +18°C° 0 mm 4 mps 756 mmHg 54%
    14:00 +20°C° 0 mm 3 mps 755 mmHg 54%
    15:00 +18°C° 0 mm 3 mps 755 mmHg 60%
    16:00 +17°C° 0 mm 3 mps 755 mmHg 66%
    17:00 +16°C° 0 mm 3 mps 755 mmHg 72%
    18:00 +14°C° 0 mm 3 mps 755 mmHg 74%
    19:00 +14°C° 0 mm 2 mps 756 mmHg 75%
    20:00 +14°C° 0 mm 2 mps 756 mmHg 77%
    21:00 +13°C° 0 mm 2 mps 756 mmHg 78%
    22:00 +12°C° 0 mm 3 mps 755 mmHg 79%
    23:00 +11°C° 0 mm 3 mps 755 mmHg 81%

    22 June, Saturday

    Time Temperature Precipitation Wind Pressure Humidity
    00:00 +11°C° 0 mm 3 mps 755 mmHg 82%
    01:00 +11°C° 0 mm 3 mps 755 mmHg 84%
    02:00 +11°C° 0 mm 3 mps 755 mmHg 85%
    03:00 +10°C° 0 mm 3 mps 754 mmHg 84%
    04:00 +10°C° 0 mm 4 mps 754 mmHg 83%
    05:00 +10°C° 0 mm 4 mps 754 mmHg 82%
    06:00 +11°C° 0 mm 4 mps 754 mmHg 80%
    07:00 +10°C° 0 mm 5 mps 753 mmHg 78%
    08:00 +12°C° 0 mm 5 mps 753 mmHg 76%
    09:00 +14°C° 0 mm 6 mps 753 mmHg 69%
    10:00 +16°C° 0 mm 6 mps 752 mmHg 62%
    11:00 +20°C° 0 mm 7 mps 752 mmHg 56%
    12:00 +20°C° 0 mm 7 mps 751 mmHg 58%
    13:00 +20°C° 0 mm 7 mps 750 mmHg 59%
    14:00 +21°C° 0 mm 7 mps 748 mmHg 61%
    15:00 +20°C° 0.1 mm 7 mps 748 mmHg 66%
    16:00 +18°C° 0.1 mm 7 mps 748 mmHg 71%
    17:00 +17°C° 0.1 mm 8 mps 747 mmHg 75%
    18:00 +17°C° 0.8 mm 8 mps 747 mmHg 80%
    19:00 +16°C° 0.8 mm 9 mps 747 mmHg 85%
    20:00 +16°C° 0.8 mm 10 mps 747 mmHg 89%
    21:00 +15°C° 1.3 mm 8 mps 747 mmHg 89%
    22:00 +15°C° 1.3 mm 7 mps 748 mmHg 90%
    23:00 +14°C° 1.3 mm 5 mps 748 mmHg 90%

    23 June, Sunday

    Time Temperature Precipitation Wind Pressure Humidity
    00:00 +13°C° 0 mm 5 mps 748 mmHg 90%
    01:00 +13°C° 0 mm 5 mps 748 mmHg 91%
    02:00 +12°C° 0 mm 5 mps 749 mmHg 91%
    03:00 +12°C° 0 mm 5 mps 749 mmHg 91%
    04:00 +10°C° 0 mm 5 mps 749 mmHg 92%
    05:00 +10°C° 0 mm 5 mps 749 mmHg 92%
    06:00 +10°C° 0 mm 5 mps 750 mmHg 92%
    07:00 +10°C° 0 mm 5 mps 750 mmHg 92%
    08:00 +10°C° 0 mm 5 mps 750 mmHg 92%
    09:00 +11°C° 0.1 mm 6 mps 750 mmHg 85%
    10:00 +14°C° 0.1 mm 7 mps 750 mmHg 79%
    11:00 +15°C° 0.1 mm 9 mps 749 mmHg 72%
    12:00 +16°C° 0.1 mm 9 mps 749 mmHg 67%
    13:00 +17°C° 0.1 mm 10 mps 748 mmHg 62%
    14:00 +17°C° 0.1 mm 11 mps 748 mmHg 57%
    15:00 +16°C° 0.4 mm 10 mps 748 mmHg 66%
    16:00 +13°C° 0.4 mm 9 mps 749 mmHg 74%
    17:00 +11°C° 0.4 mm 8 mps 749 mmHg 83%
    18:00 +11°C° 0 mm 9 mps 750 mmHg 81%
    19:00 +10°C° 0 mm 9 mps 751 mmHg 78%
    20:00 +10°C° 0 mm 9 mps 752 mmHg 76%
    21:00 +10°C° 0 mm 9 mps 752 mmHg 74%
    22:00 +10°C° 0 mm 9 mps 753 mmHg 73%
    23:00 +10°C° 0 mm 9 mps 753 mmHg 71%
    Show more